Location: Sungai Jaoh
(2.9167°N, 113.9167°E)
Time: 16:30:40
(UTC+00:00)

ARIANE 5 DEB (SYLDA) - Pass Details

Date: 30 November 2020
Orbit: 870 x 35886 km, 1.9° (Epoch: 25 January)

Event Time Altitude Azimuth Distance (km) Brightness Sun altitude
Exits shadow 19:35:30 35° 107° (ESE) 1,384 4.1 -37.4°
Drops below altitude 10° 19:38:39 10° 98° (E) 2,848 6.1 -36.7°
Sets 19:41:52 0° 95° (E) 4,440 7.3 -36.0°
